TimeMST,TemperatureF,Dew PointF,Humidity,Sea Level PressureIn,VisibilityMPH,Wind Direction,Wind SpeedMPH,Gust SpeedMPH,PrecipitationIn,Events,Conditions,WindDirDegrees,DateUTC
12:57 AM,25.0,8.1,49,30.29,10.0,Calm,Calm,-,N/A,,Clear,0,2011-11-03 07:57:00
1:57 AM,23.0,8.1,53,30.28,10.0,East,4.6,-,N/A,,Clear,80,2011-11-03 08:57:00
2:57 AM,21.0,9.0,60,30.28,10.0,Calm,Calm,-,N/A,,Clear,0,2011-11-03 09:57:00
3:57 AM,19.0,8.1,62,30.27,10.0,Calm,Calm,-,N/A,,Clear,0,2011-11-03 10:57:00
4:57 AM,18.0,8.1,65,30.28,10.0,Calm,Calm,-,N/A,,Clear,0,2011-11-03 11:57:00
6:57 AM,16.0,8.1,71,30.32,10.0,Calm,Calm,-,N/A,,Clear,0,2011-11-03 13:57:00
7:57 AM,26.1,14.0,60,30.29,10.0,Calm,Calm,-,N/A,,Clear,0,2011-11-03 14:57:00
8:57 AM,37.9,12.9,36,30.23,10.0,Calm,Calm,-,N/A,,Clear,0,2011-11-03 15:57:00
9:57 AM,45.0,10.0,24,30.18,10.0,Calm,Calm,-,N/A,,Clear,0,2011-11-03 16:57:00
10:57 AM,51.1,5.0,15,30.15,10.0,SW,15.0,-,N/A,,Clear,220,2011-11-03 17:57:00
11:57 AM,54.0,5.0,14,30.11,10.0,SSW,16.1,-,N/A,,Clear,210,2011-11-03 18:57:00
12:57 PM,54.0,10.0,17,30.08,10.0,SSW,17.3,-,N/A,,Clear,210,2011-11-03 19:57:00
1:57 PM,55.0,10.9,17,30.07,10.0,SW,16.1,21.9,N/A,,Clear,220,2011-11-03 20:57:00
2:57 PM,55.0,10.0,17,30.06,10.0,SSW,13.8,24.2,N/A,,Clear,210,2011-11-03 21:57:00
3:57 PM,54.0,10.9,18,30.05,10.0,SSW,15.0,-,N/A,,Clear,210,2011-11-03 22:57:00
4:57 PM,51.1,10.9,20,30.06,10.0,SSW,13.8,-,N/A,,Clear,210,2011-11-03 23:57:00
5:57 PM,45.0,14.0,29,30.11,10.0,SSW,5.8,-,N/A,,Clear,210,2011-11-04 00:57:00
6:57 PM,37.9,14.0,38,30.14,10.0,Calm,Calm,-,N/A,,Clear,0,2011-11-04 01:57:00
7:57 PM,35.1,12.9,40,30.09,10.0,Calm,Calm,-,N/A,,Clear,0,2011-11-04 02:57:00
8:57 PM,32.0,14.0,48,30.04,10.0,Calm,Calm,-,N/A,,Clear,0,2011-11-04 03:57:00
9:57 PM,30.0,12.9,49,30.00,10.0,Calm,Calm,-,N/A,,Clear,0,2011-11-04 04:57:00
10:57 PM,28.0,14.0,56,29.96,10.0,Calm,Calm,-,N/A,,Clear,0,2011-11-04 05:57:00
11:00 PM,32.0,32.0,100,-9999,-9999.0,North,-9999.0,-,N/A,,Unknown,0,2011-11-04 06:00:00
11:57 PM,27.0,12.9,56,29.92,10.0,Calm,Calm,-,N/A,,Clear,0,2011-11-04 06:57:00